Location: Bidart
(43.4376°N, 1.5913°W)
Time: 12:57:29
(UTC+00:00)

Okean 3 Rocket - Pass Details

Date: 19 May 2025
Orbit: 610 x 638 km, 82.5° (Epoch: 11 June)

Event Time Altitude Azimuth Distance (km) Brightness Sun altitude
Rises 23:30:28 0° 345° (NNW) 2,899 8.3 -26.1°
Reaches altitude 10° 23:32:45 10° 339° (NNW) 1,993 7.1 -26.2°
Enters shadow 23:36:29 43° 287° (WNW) 878 4.4 -26.3°
